Terminal Aerodrome Forecast
Issued by NWS

Home | Current Version | Previous Version | Text Only | Print | Product List | Glossary Off
Versions: 1 2 3 4 5 6 7 8 9 10 11 12 13 14 15 16 17 18 19 20 21 22 23

000
FTUS43 KTOP 151100 AAB
TAFMHK
TAF AMD
KMHK 151103Z 1511/1606 04008KT P6SM -SHRA VCTS SCT011CB OVC060
     FM151400 31014G22KT P6SM -SHRA OVC007
     FM151630 30015G23KT P6SM OVC012
     FM152100 30015G23KT P6SM OVC025=

USA.gov is the U.S. government's official web portal to all federal, state and local government web resources and services.